Regional Weather Roundup
Issued by NWS Charleston, SC

Current Version | Previous Version | Text Only | Print | Product List | Glossary On
Versions: 1 2 3 4 5 6 7 8 9 10 11 12 13 14 15 16 17 18 19 20 21 22 23 24 25 26 27 28 29 30 31 32 33 34 35 36 37 38 39 40 41 42 43 44 45 46 47 48 49 50
000 ASUS42 KCHS 031027 RWRCHS REGIONAL WEATHER ROUNDUP NATIONAL WEATHER SERVICE CHARLESTON SC 600 AM EDT MON AUG 03 2015 NOTE: "FAIR" INDICATES FEW OR NO CLOUDS BELOW 12,000 FEET WITH NO SIGNIFICANT WEATHER AND/OR OBSTRUCTIONS TO VISIBILITY. NOT ALL STATIONS ARE QUALITY CONTROLLED BY THE NATIONAL WEATHER SERVICE. USE DATA WITH CAUTION...ESPECIALLY DEWPOINT OBSERVATIONS. SCZ027-030-031-034>040-042>050-031100- ...SOUTHEAST SOUTH CAROLINA... CITY SKY/WX TMP DP RH WIND PRES REMARKS N CHARLESTON MOCLDY 76 74 93 S6 29.90R WATERFRONT PRK N/A 80 75 84 S7 29.87R MOUNT PLEASANT FAIR 79 75 89 S6 29.91R JOHNS ISLAND FAIR 81 75 83 S9 29.91R PINOPOLIS NOT AVBL MONCKS CORNER PTSUNNY 75 73 94 CALM 29.91R SUMMERVILLE FAIR 73 73 100 CALM 29.92R BEAUFORT MCAS PTCLDY 78 75 90 CALM 29.89R BEAUFORT ARPT CLOUDY 79 75 89 CALM 29.89R HILTON HEAD IS NOT AVBL WALTERBORO PTSUNNY 75 73 94 CALM 29.91R ALLENDALE CLOUDY 75 73 94 CALM 29.89R ...SOUTHERN MIDLANDS AND PEE DEE... CITY SKY/WX TMP DP RH WIND PRES REMARKS GEORGETOWN NOT AVBL KINGSTREE NOT AVBL ORANGEBURG MOCLDY 74 71 91 CALM 29.91R BARNWELL PTSUNNY 75 73 94 CALM 29.91R AIKEN DRZL/FOG 70 68 94 E3 29.95R VSB 1/4 MANNING RAIN 72 72 100 CALM 29.91R COLUMBIA MOCLDY 74 70 87 E5 29.90R SUMTER CLOUDY 72 70 94 N2 29.89R FLORENCE PTCLDY 75 72 90 CALM 29.92R MYRTLE BEACH CLOUDY 75 72 88 CALM 29.93R N MYRTLE BEACH MOCLDY 77 71 82 CALM 29.91R $$ GAZ063-065-086>088-099>101-113>116-118-119-134>141-150-031100- ...SOUTHEAST GEORGIA... CITY SKY/WX TMP DP RH WIND PRES REMARKS SAVANNAH ARPT CLOUDY 77 74 90 CALM 29.88R HUNTER AAF MOCLDY 77 77 100 SE6 29.86R FORT STEWART NOT AVBL STATESBORO CLOUDY 75 32 20 CALM 29.90R SYLVANIA CLOUDY 75 75 99 CALM 29.90R CLAXTON NOT AVBL ...CSRA...CENTRAL AND FAR SOUTHEAST GEORGIA... CITY SKY/WX TMP DP RH WIND PRES REMARKS THOMSON CLOUDY 75 75 100 CALM 29.94R AUGUSTA-BUSH PTCLDY 72 71 97 S3 29.88R AUGUSTA-DANIEL MOCLDY 75 73 93 CALM 29.91R SWAINSBORO CLOUDY N/A N/A N/A CALM 29.90R VIDALIA CLOUDY 73 73 100 SE3 29.88R EASTMAN CLOUDY 76 76 100 CALM 29.90R HAZLEHURST CLOUDY 76 76 100 CALM 29.86S ALMA CLOUDY 76 73 91 E5 29.86R WAYCROSS RAIN 77 77 100 CALM 29.85S JESUP CLOUDY 79 75 89 CALM 29.87S BAXLEY CLOUDY 77 73 88 CALM 29.87R BRUNSWICK CLOUDY 79 73 83 SE6 29.88R SAINT SIMONS CLOUDY 80 73 79 S10 29.86S $$ SCZ027-028-034-036>038-045-046-048>050-GAZ119-141-031100- ...LAKE AND SUPPLEMENTAL COASTAL OBSERVATIONS... STATION/POSITION TIME TEMP WIND PRES WAVE SWELL AIR SEA DIR/SP/G HT/PER HT/PER/DIR (UTC) (F) (DEG/KT/KT) (MB) (FT/S) (FT/S/D) UPR LAKE MARION NOT AVBL WINYAH BAY 0945 76 330/ 2 1012.0R LAKE MURRAY 0900 76 120/ 5/ 8 1011.9S ACE BASIN NERRS NOT AVBL FORT PULASKI 1000 81 85 170/ 5/ 8 1012.3R SAPELO ISLAND 1000 80 170/ 9 1012.0R $$ ANZ835-935-AMZ111-154-330-350-352-354-370-450-454-472-031100- ...C-MAN AND BUOY OBSERVATIONS... STATION/POSITION TIME TEMP WIND PRES WAVE SWELL AIR SEA DIR/SP/G HT/PER HT/PER/DIR (UTC) (F) (DEG/KT/KT) (MB) (FT/S) (FT/S/D) BUOY 41004 0950 82 83 210/ 14/ 16 1012.4R 5/ 6 3/ 6 BUOY 41008 0950 81 83 180/ 16/ 19 1011.9R 5/ 6 2/100/ 9 FOLLY BEACH CMAN 1000 81 210/ 16/ 18 1012.7R CAPERS NEARSHORE 0908 81 210/ 16/ 21 1012.5F FRIPP NEARSHORE 0900 82 180/ 16/ 19 1011.7R STATION/POSITION TIME TEMP WIND PRES WAVE SWELL AIR SEA DIR/SP/G HT/PER HT/PER/DIR (UTC) (F) (DEG/KT/KT) (MB) (FT/S) (FT/S/D) 5E ST. MARYS GA 0921 83 N/A 5/ 5 2/110/11 FRYING PAN BUOY 0950 83 82 200/ 14/ 17 1013.6R 5/ 7 3/180/ 8 BUOY 41025 0950 74 85 260/ 12/ 14 1014.0R 4/ 6 3/220/ 6 CAPE LOOKOUT NC 1000 77 250/ 15/ 19 1013.5R BUOY 41002 0950 82 81 210/ 14/ 17 1015.9R 5/ 6 2/110/11 BUOY 41010 0920 83 84 170/ 17/ 19 1013.8R ST AUGUSTINE FL 1000 77 78 180/ 16/ 18 1011.6R $$

USA.gov is the U.S. government's official web portal to all federal, state and local government web resources and services.